Regional Weather Roundup
Issued by NWS Charleston, SC

Current Version | Previous Version | Graphics & Text | Print | Product List | Glossary On
Versions: 1 2 3 4 5 6 7 8 9 10 11 12 13 14 15 16 17 18 19 20 21 22 23 24 25 26 27 28 29 30 31 32 33 34 35 36 37 38 39 40 41 42 43 44 45 46 47 48 49 50
000
ASUS42 KCHS 291813
RWRCHS

REGIONAL WEATHER ROUNDUP
NATIONAL WEATHER SERVICE CHARLESTON SC
200 PM EDT FRI APR 29 2016

NOTE: "FAIR" INDICATES FEW OR NO CLOUDS BELOW 12,000 FEET WITH NO
SIGNIFICANT WEATHER AND/OR OBSTRUCTIONS TO VISIBILITY.

NOT ALL STATIONS ARE QUALITY CONTROLLED. USE DATA WITH CAUTION...
ESPECIALLY DEWPOINT OBSERVATIONS.

SCZ027-030-031-034>040-042>050-291900-
...SOUTHEAST SOUTH CAROLINA...

CITY           SKY/WX    TMP DP  RH WIND       PRES   REMARKS
N CHARLESTON   MOSUNNY   88  60  38 VRB5      29.94S
6HR MIN TEMP:  71; 6HR MAX TEMP:  89;

WATERFRONT PRK   N/A     79  67  66 SE8       29.93S
MOUNT PLEASANT FAIR      84  66  54 E10G18    29.94S
JOHNS ISLAND   FAIR      86  66  51 E10       29.94S
PINOPOLIS        N/A     84  68  58 VRB2      29.86F
MONCKS CORNER  FAIR      82  59  44 N6        29.95R
SUMMERVILLE    FAIR      88  61  40 N3        29.96R
BEAUFORT MCAS  MOSUNNY   89  59  36 SE6       29.94F
6HR MIN TEMP:  72; 6HR MAX TEMP:  90;

BEAUFORT ARPT  FAIR      86  55  35 E5        29.94S
HILTON HEAD IS MOSUNNY   93  63  36 E6        29.96S HX  94
WALTERBORO     PTCLDY    90  54  29 CALM      29.96R
ALLENDALE      FAIR      88  55  33 VRB5      29.94S

...SOUTHERN MIDLANDS AND PEE DEE...

CITY           SKY/WX    TMP DP  RH WIND       PRES   REMARKS
GEORGETOWN     FAIR      82  66  57 E9        29.95S
KINGSTREE      FAIR      82  57  42 N3        29.96S
ORANGEBURG     SUNNY     87  55  33 CALM      29.95F
6HR MIN TEMP:  69; 6HR MAX TEMP:  88;

BARNWELL       FAIR      91  57  31 NE6       29.96F HX  90
AIKEN          FAIR      88  52  29 S5        29.99F
MANNING        NOT AVBL
COLUMBIA       MOSUNNY   87  56  34 E6        29.94F
6HR MIN TEMP:  70; 6HR MAX TEMP:  88;

SUMTER         MOSUNNY   85  60  42 VRB5      29.94S
6HR MIN TEMP:  70; 6HR MAX TEMP:  85;

FLORENCE       MOSUNNY   83  62  49 SW5       29.96S
6HR MIN TEMP:  67; 6HR MAX TEMP:  84;

MYRTLE BEACH   MOSUNNY   84  63  48 SE12      29.96F
N MYRTLE BEACH MOSUNNY   77  67  71 SE14G24   29.95S
6HR MIN TEMP:  71; 6HR MAX TEMP:  85;


$$

GAZ063-065-086>088-099>101-113>116-118-119-134>141-150-291900-
...SOUTHEAST GEORGIA...

CITY           SKY/WX    TMP DP  RH WIND       PRES   REMARKS
SAVANNAH ARPT  MOSUNNY   89  59  36 S6        29.94F
6HR MIN TEMP:  71; 6HR MAX TEMP:  90;

HUNTER AAF     SUNNY     90  63  39 VRB3      29.91F HX  90
6HR MIN TEMP:  71; 6HR MAX TEMP:  90;

FORT STEWART   MOSUNNY   89  58  35 CALM      29.92F
6HR MIN TEMP:  71; 6HR MAX TEMP:  89;

STATESBORO     SUNNY     91  62  37 CALM      29.95F HX  92
SYLVANIA       CLOUDY    90  60  36 SW5       29.96F
CLAXTON        FAIR      89  62  39 CALM      29.95F HX  90

...CSRA...CENTRAL AND FAR SOUTHEAST GEORGIA...

CITY           SKY/WX    TMP DP  RH WIND       PRES   REMARKS
THOMSON        SUNNY     86  61  42 CALM      30.01F
AUGUSTA-BUSH   SUNNY     87  55  33 CALM      29.94F
6HR MIN TEMP:  66; 6HR MAX TEMP:  88;

AUGUSTA-DANIEL SUNNY     89  55  31 VRB7      29.96F
SWAINSBORO     FAIR      88  52  29 SW5       29.97F
VIDALIA        SUNNY     88  59  37 SW6       29.96F HAZE
EASTMAN        FAIR      88  60  38 E5        29.98F
HAZLEHURST     FAIR      89  58  35 NW5       29.95F
ALMA           SUNNY     87  60  40 VRB6      29.95F
6HR MIN TEMP:  70; 6HR MAX TEMP:  88;

WAYCROSS       SUNNY     87  65  47 NW3       29.96F
JESUP          FAIR      91  63  38 CALM      29.95F HX  92
BAXLEY         FAIR      90  61  37 CALM      29.96F
BRUNSWICK      PTSUNNY   91  63  38 CALM      29.96S HX  92
SAINT SIMONS   SUNNY     81  73  76 S10       29.96S
6HR MIN TEMP:  70; 6HR MAX TEMP:  84;


$$

SCZ027-028-034-036>038-045-046-048>050-GAZ119-141-291900-
...LAKE AND SUPPLEMENTAL COASTAL OBSERVATIONS...

STATION/POSITION TIME  TEMP    WIND        PRES    WAVE   SWELL
                       AIR SEA DIR/SP/G            HT/PER HT/PER/DIR
                 (UTC) (F)     (DEG/KT/KT) (MB)    (FT/S) (FT/S/D)
WINYAH BAY       NOT AVBL
LAKE MURRAY      1700   83     180/  4/  6 1014.6S
ACE BASIN NERRS  NOT AVBL
FORT PULASKI     1700   81 71   80/  5/  5 1014.5F
SAPELO ISLAND    1700   86     190/  5     1014.0F

$$

ANZ835-935-AMZ111-154-330-350-352-354-370-450-454-472-291900-
...C-MAN AND BUOY OBSERVATIONS...

STATION/POSITION TIME  TEMP    WIND        PRES    WAVE   SWELL
                       AIR SEA DIR/SP/G            HT/PER HT/PER/DIR
                 (UTC) (F)     (DEG/KT/KT) (MB)    (FT/S) (FT/S/D)
BUOY 41004       1750   72 74   30/  8/  8 1013.8F   2/ 4   2/ 5
BUOY 41008       NOT AVBL
FOLLY BEACH CMAN 1700   78     150/  4/  4 1014.4F
CAPERS NEARSHORE 1708   75 70  140/  4/  6 1014.2S
FRIPP NEARSHORE  1708   76 70  170/  6/  6 1013.6F


STATION/POSITION TIME  TEMP    WIND        PRES    WAVE   SWELL
                       AIR SEA DIR/SP/G            HT/PER HT/PER/DIR
                 (UTC) (F)     (DEG/KT/KT) (MB)    (FT/S) (FT/S/D)
5E ST. MARYS GA  1721      73                N/A     1/11
FRYING PAN BUOY  1700   69 70   30/ 16/ 19 1014.5F
BUOY 41025       1750   65 74  350/ 16/ 17 1013.4F   3/ 9   2/ 70/ 9
CAPE LOOKOUT NC  1700   67      10/  9/ 11 1014.8F
BUOY 41002       1750   71 71  200/ 14/ 16 1013.8F   3/ 4   2/ 60/11
BUOY 41010       1720   76 77  210/ 10/ 10 1015.8F
ST AUGUSTINE FL  1800   72 72  100/  5/  5 1015.5F


$$



USA.gov is the U.S. government's official web portal to all federal, state and local government web resources and services.